Home > Weather > Eckernförde > Past weeks

Flag for Germany Past Weather in Eckernförde, Schleswig-Holstein, Germany — Yesterday and Last 2 Weeks

Now
52 °F

Cool.


Feels Like: 49 °F
Forecast: 51 / 66 °F
Wind: 8 mph from Northeast

Location: Schleswig-Jagel

Current Time: May 28, 2016 at 6:14:42 AM

Latest Report: May 28, 2016 at 5:20 AM


Visibility: N/A

Pressure: 30.04 "Hg

Humidity: 100%

Dew Point: 52 °F

Location of EckernfördeLocation

Past Weather in Eckernförde — Graph

°F

Eckernförde Temperature Yesterday

Maximum temperature yesterday: 64 °F (at 3:20 PM)
Minimum temperature yesterday: 54 °F (at 12:20 AM)
Average temperature yesterday: 58 °F

High & Low Weather Summary for the Past Weeks

 TemperatureHumidityPressure
High81 °F (May 22, 2:20 PM)100% (May 21, 3:20 AM)30.07 "Hg (May 21, 3:20 AM)
Low37 °F (May 15, 3:20 AM)37% (May 22, 2:20 PM)29.62 "Hg (May 13, 2:20 PM)
Average57 °F80%29.87 "Hg
* Reported May 13 4:20 AM — May 28 4:20 AM, Eckernförde, Weather by CustomWeather, © 2016

Note: Actual official high and low records may vary slightly from our data, if they occured in-between our weather recording intervals... More about our weather records

Advertising

Eckernförde Weather History for the Previous 24 Hours

Scroll right to see more
 ConditionsComfort  
Time TempWeatherWind HumidityBarometerVisibility
4:20 AM
Sat, May 28
52 °FCool.8 mph94%30.04 "HgN/A
3:20 AM54 °FCool.8 mph88%30.04 "HgN/A
2:20 AM54 °FCool.3 mph88%30.07 "HgN/A
1:20 AM52 °FCool.7 mph88%30.07 "HgN/A
12:20 AM54 °FCool.2 mph82%30.07 "HgN/A
11:20 PM
Fri, May 27
54 °FCool.3 mph82%30.07 "HgN/A
10:20 PM55 °FCool.6 mph72%30.07 "HgN/A
9:20 PM57 °FCool.7 mph67%30.07 "HgN/A
8:20 PM61 °FRefreshingly cool.8 mph52%30.04 "HgN/A
7:20 PM63 °FMild.7 mph42%30.04 "HgN/A
6:20 PM64 °FMild.7 mph49%30.04 "HgN/A
5:20 PM64 °FMild.7 mph56%30.04 "HgN/A
4:20 PM64 °FMild.5 mph60%30.07 "HgN/A
3:20 PM64 °FMild.7 mph49%30.07 "HgN/A
1:20 PM61 °FCool.10 mph68%30.07 "HgN/A
12:20 PM59 °FCool.10 mph68%30.07 "HgN/A
11:20 AM57 °FPartly sunny.7 mph72%30.07 "HgN/A
10:20 AM57 °FPartly sunny.7 mph82%30.07 "HgN/A
9:20 AM55 °FPartly sunny.6 mph94%30.07 "HgN/A
8:20 AM55 °FPartly sunny.8 mph94%30.07 "Hg6 mi
7:20 AM55 °FPartly sunny.9 mph94%30.07 "Hg5 mi
6:52 AM55 °FPartly sunny.8 mph94%30.04 "Hg4 mi
6:20 AM55 °FDrizzle. Fog.5 mph94%30.04 "Hg3 mi
Weather by CustomWeather, © 2016

See weather overviewHow to use our weather pages